Time,TemperatureF,DewpointF,PressureIn,WindDirection,WindDirectionDegrees,WindSpeedMPH,WindSpeedGustMPH,Humidity,HourlyPrecipIn,Conditions,Clouds,dailyrainin,SoftwareType,DateUTC
2013-02-22 00:00:00,26.4,17.2,30.22,NW,320,7.0,14.0,68,0.00,,,0.00,meteohub,2013-02-22 05:00:00,
2013-02-22 00:05:00,26.4,17.2,30.23,NNE,17,8.0,11.0,68,0.00,,,0.00,meteohub,2013-02-22 05:05:00,
2013-02-22 00:10:00,26.4,17.6,30.23,WNW,288,4.0,16.0,69,0.00,,,0.00,meteohub,2013-02-22 05:10:00,
2013-02-22 00:15:00,26.6,17.8,30.22,North,352,13.0,16.0,69,0.00,,,0.00,meteohub,2013-02-22 05:15:00,
2013-02-22 00:20:00,26.8,18.0,30.22,NW,325,5.0,16.0,69,0.00,,,0.00,meteohub,2013-02-22 05:20:00,
2013-02-22 00:25:00,27.0,18.1,30.22,NNW,336,10.0,14.0,69,0.00,,,0.00,meteohub,2013-02-22 05:25:00,
2013-02-22 00:30:00,27.1,18.3,30.22,NW,314,9.0,14.0,69,0.00,,,0.00,meteohub,2013-02-22 05:30:00,
2013-02-22 00:35:00,27.1,18.3,30.23,NW,321,10.0,15.0,69,0.00,,,0.00,meteohub,2013-02-22 05:35:00,
2013-02-22 00:40:00,27.3,18.5,30.23,NW,322,5.0,17.0,69,0.00,,,0.00,meteohub,2013-02-22 05:40:00,
2013-02-22 00:45:00,27.3,18.5,30.23,NNW,330,3.0,17.0,69,0.00,,,0.00,meteohub,2013-02-22 05:45:00,
2013-02-22 00:51:00,27.5,18.7,30.23,NNW,342,9.0,15.0,69,0.00,,,0.00,meteohub,2013-02-22 05:51:00,
2013-02-22 00:56:00,27.3,18.5,30.23,NW,307,9.0,15.0,69,0.00,,,0.00,meteohub,2013-02-22 05:56:00,
2013-02-22 01:01:00,27.3,18.5,30.23,NNW,330,9.0,15.0,69,0.00,,,0.00,meteohub,2013-02-22 06:01:00,
2013-02-22 01:06:00,27.3,18.5,30.23,NW,316,5.0,14.0,69,0.00,,,0.00,meteohub,2013-02-22 06:06:00,
2013-02-22 01:11:00,27.3,18.9,30.23,NNW,334,9.0,14.0,70,0.00,,,0.00,meteohub,2013-02-22 06:11:00,
2013-02-22 01:16:00,27.3,18.9,30.23,NNW,328,10.0,14.0,70,0.00,,,0.00,meteohub,2013-02-22 06:16:00,
2013-02-22 01:21:00,27.3,18.9,30.24,NNW,342,8.0,16.0,70,0.00,,,0.00,meteohub,2013-02-22 06:21:00,
2013-02-22 01:26:00,27.3,18.9,30.24,NW,311,7.0,16.0,70,0.00,,,0.00,meteohub,2013-02-22 06:26:00,
2013-02-22 01:31:00,27.1,18.7,30.24,NW,326,6.0,18.0,70,0.00,,,0.00,meteohub,2013-02-22 06:31:00,
2013-02-22 01:36:00,27.1,18.7,30.24,NW,306,3.0,18.0,70,0.00,,,0.00,meteohub,2013-02-22 06:36:00,
2013-02-22 01:41:00,27.1,18.7,30.24,NNW,347,10.0,18.0,70,0.00,,,0.00,meteohub,2013-02-22 06:41:00,
2013-02-22 01:46:00,27.1,18.7,30.24,NNW,342,4.0,14.0,70,0.00,,,0.00,meteohub,2013-02-22 06:46:00,
2013-02-22 01:51:00,27.1,19.0,30.24,NW,325,9.0,13.0,71,0.00,,,0.00,meteohub,2013-02-22 06:51:00,
2013-02-22 01:56:00,27.0,18.9,30.23,NNW,339,6.0,11.0,71,0.00,,,0.00,meteohub,2013-02-22 06:56:00,
2013-02-22 02:01:00,27.0,18.9,30.24,NW,325,6.0,11.0,71,0.00,,,0.00,meteohub,2013-02-22 07:01:00,
2013-02-22 02:06:00,27.1,19.0,30.24,NNW,333,5.0,13.0,71,0.00,,,0.00,meteohub,2013-02-22 07:06:00,
2013-02-22 02:11:00,27.1,19.0,30.24,NNW,330,6.0,13.0,71,0.00,,,0.00,meteohub,2013-02-22 07:11:00,
2013-02-22 02:16:00,27.1,19.0,30.24,NNW,348,3.0,13.0,71,0.00,,,0.00,meteohub,2013-02-22 07:16:00,
2013-02-22 02:21:00,27.1,19.0,30.23,NNW,333,8.0,12.0,71,0.00,,,0.00,meteohub,2013-02-22 07:21:00,
2013-02-22 02:26:00,27.1,19.0,30.23,NNW,345,7.0,12.0,71,0.00,,,0.00,meteohub,2013-02-22 07:26:00,
2013-02-22 02:31:00,27.1,19.0,30.23,NW,309,5.0,12.0,71,0.00,,,0.00,meteohub,2013-02-22 07:31:00,
2013-02-22 02:36:00,27.1,19.0,30.23,North,352,9.0,11.0,71,0.00,,,0.00,meteohub,2013-02-22 07:36:00,
2013-02-22 02:41:00,27.3,19.2,30.24,NNW,345,8.0,11.0,71,0.00,,,0.00,meteohub,2013-02-22 07:41:00,
2013-02-22 02:46:00,27.3,19.2,30.25,NNW,335,5.0,12.0,71,0.00,,,0.00,meteohub,2013-02-22 07:46:00,
2013-02-22 02:51:00,27.1,19.0,30.25,North,350,9.0,12.0,71,0.00,,,0.00,meteohub,2013-02-22 07:51:00,
2013-02-22 02:56:00,27.3,19.2,30.25,NNW,340,8.0,10.0,71,0.00,,,0.00,meteohub,2013-02-22 07:56:00,
2013-02-22 03:01:00,27.1,19.0,30.25,NNE,13,2.0,13.0,71,0.00,,,0.00,meteohub,2013-02-22 08:01:00,
2013-02-22 03:06:00,27.1,19.0,30.25,NNW,340,7.0,13.0,71,0.00,,,0.00,meteohub,2013-02-22 08:06:00,
2013-02-22 03:11:00,27.1,19.0,30.25,NNW,334,3.0,13.0,71,0.00,,,0.00,meteohub,2013-02-22 08:11:00,
2013-02-22 03:17:00,27.1,19.0,30.25,NNW,345,9.0,12.0,71,0.00,,,0.00,meteohub,2013-02-22 08:17:00,
2013-02-22 03:22:00,27.0,19.2,30.25,NNE,20,3.0,13.0,72,0.00,,,0.00,meteohub,2013-02-22 08:22:00,
2013-02-22 03:27:00,27.0,19.2,30.26,NNE,17,8.0,13.0,72,0.00,,,0.00,meteohub,2013-02-22 08:27:00,
2013-02-22 03:32:00,27.0,19.2,30.25,South,171,1.0,13.0,72,0.00,,,0.00,meteohub,2013-02-22 08:32:00,
2013-02-22 03:37:00,27.0,19.2,30.25,North,5,7.0,10.0,72,0.00,,,0.00,meteohub,2013-02-22 08:37:00,
2013-02-22 03:42:00,27.0,19.2,30.25,NNW,348,6.0,10.0,72,0.00,,,0.00,meteohub,2013-02-22 08:42:00,
2013-02-22 03:47:00,27.1,19.0,30.25,NE,39,5.0,10.0,71,0.00,,,0.00,meteohub,2013-02-22 08:47:00,
2013-02-22 03:52:00,27.1,19.4,30.25,NNW,343,5.0,11.0,72,0.00,,,0.00,meteohub,2013-02-22 08:52:00,
2013-02-22 03:57:00,27.1,19.4,30.24,NW,315,4.0,11.0,72,0.00,,,0.00,meteohub,2013-02-22 08:57:00,
2013-02-22 04:02:00,27.3,19.2,30.24,North,9,6.0,12.0,71,0.00,,,0.00,meteohub,2013-02-22 09:02:00,
2013-02-22 04:07:00,27.3,19.2,30.25,NNW,338,6.0,12.0,71,0.00,,,0.00,meteohub,2013-02-22 09:07:00,
2013-02-22 04:12:00,27.3,19.6,30.26,NNW,340,6.0,15.0,72,0.00,,,0.00,meteohub,2013-02-22 09:12:00,
2013-02-22 04:17:00,27.5,19.4,30.27,NNE,16,5.0,15.0,71,0.00,,,0.00,meteohub,2013-02-22 09:17:00,
2013-02-22 04:22:00,27.7,19.6,30.27,North,352,8.0,15.0,71,0.00,,,0.00,meteohub,2013-02-22 09:22:00,
2013-02-22 04:27:00,27.9,19.8,30.27,NNE,23,11.0,12.0,71,0.00,,,0.00,meteohub,2013-02-22 09:27:00,
2013-02-22 04:32:00,27.9,19.8,30.28,NW,310,4.0,13.0,71,0.00,,,0.00,meteohub,2013-02-22 09:32:00,
2013-02-22 04:37:00,28.0,19.9,30.29,NNW,340,7.0,13.0,71,0.00,,,0.00,meteohub,2013-02-22 09:37:00,
2013-02-22 04:42:00,28.0,19.9,30.30,NW,322,4.0,13.0,71,0.00,,,0.00,meteohub,2013-02-22 09:42:00,
2013-02-22 04:47:00,28.2,20.1,30.30,North,352,6.0,14.0,71,0.00,,,0.00,meteohub,2013-02-22 09:47:00,
2013-02-22 04:52:00,28.2,20.1,30.30,NNW,330,7.0,14.0,71,0.00,,,0.00,meteohub,2013-02-22 09:52:00,
2013-02-22 04:57:00,28.4,20.1,30.30,NNW,342,6.0,14.0,71,0.00,,,0.00,meteohub,2013-02-22 09:57:00,
2013-02-22 05:02:00,28.6,20.3,30.31,NNW,336,15.0,15.0,71,0.00,,,0.00,meteohub,2013-02-22 10:02:00,
2013-02-22 05:07:00,28.8,20.3,30.32,North,352,9.0,15.0,70,0.00,,,0.00,meteohub,2013-02-22 10:07:00,
2013-02-22 05:12:00,28.8,20.3,30.32,NW,322,7.0,16.0,70,0.00,,,0.00,meteohub,2013-02-22 10:12:00,
2013-02-22 05:17:00,28.9,20.5,30.32,NNW,346,9.0,16.0,70,0.00,,,0.00,meteohub,2013-02-22 10:17:00,
2013-02-22 05:22:00,28.9,20.5,30.33,NNW,338,9.0,16.0,70,0.00,,,0.00,meteohub,2013-02-22 10:22:00,
2013-02-22 05:27:00,28.9,20.5,30.32,NNW,338,7.0,16.0,70,0.00,,,0.00,meteohub,2013-02-22 10:27:00,
2013-02-22 05:32:00,28.8,20.3,30.32,NNW,334,7.0,16.0,70,0.00,,,0.00,meteohub,2013-02-22 10:32:00,
2013-02-22 05:37:00,28.8,20.5,30.32,NNW,340,10.0,16.0,71,0.00,,,0.00,meteohub,2013-02-22 10:37:00,
2013-02-22 05:42:00,28.8,20.5,30.32,NNW,340,5.0,16.0,71,0.00,,,0.00,meteohub,2013-02-22 10:42:00,
2013-02-22 05:47:00,28.8,20.5,30.32,North,358,6.0,16.0,71,0.00,,,0.00,meteohub,2013-02-22 10:47:00,
2013-02-22 05:52:00,28.8,20.5,30.32,North,1,14.0,16.0,71,0.00,,,0.00,meteohub,2013-02-22 10:52:00,
2013-02-22 05:57:00,28.8,20.5,30.31,North,1,18.0,18.0,71,0.00,,,0.00,meteohub,2013-02-22 10:57:00,
2013-02-22 06:02:00,28.9,20.7,30.31,NW,308,9.0,16.0,71,0.00,,,0.00,meteohub,2013-02-22 11:02:00,
2013-02-22 06:07:00,28.9,20.5,30.32,North,356,14.0,18.0,70,0.00,,,0.00,meteohub,2013-02-22 11:07:00,
2013-02-22 06:12:00,28.9,20.5,30.32,NNW,336,12.0,19.0,70,0.00,,,0.00,meteohub,2013-02-22 11:12:00,
2013-02-22 06:17:00,28.8,20.5,30.33,NNW,345,10.0,20.0,71,0.00,,,0.00,meteohub,2013-02-22 11:17:00,
2013-02-22 06:22:00,28.8,20.5,30.33,NNW,336,5.0,20.0,71,0.00,,,0.00,meteohub,2013-02-22 11:22:00,
2013-02-22 06:27:00,28.9,20.7,30.34,NW,325,7.0,20.0,71,0.00,,,0.00,meteohub,2013-02-22 11:27:00,
2013-02-22 06:32:00,28.9,20.7,30.35,NNW,345,12.0,15.0,71,0.00,,,0.00,meteohub,2013-02-22 11:32:00,
2013-02-22 06:37:00,28.9,20.7,30.35,NW,319,5.0,15.0,71,0.00,,,0.00,meteohub,2013-02-22 11:37:00,
2013-02-22 06:42:00,28.9,20.7,30.35,North,354,13.0,15.0,71,0.00,,,0.00,meteohub,2013-02-22 11:42:00,
2013-02-22 06:47:00,28.9,20.7,30.36,NW,320,5.0,15.0,71,0.00,,,0.00,meteohub,2013-02-22 11:47:00,
2013-02-22 06:52:00,29.1,20.8,30.36,NNW,346,3.0,15.0,71,0.00,,,0.00,meteohub,2013-02-22 11:52:00,
2013-02-22 06:57:00,29.1,20.8,30.36,NW,322,7.0,14.0,71,0.00,,,0.00,meteohub,2013-02-22 11:57:00,
2013-02-22 07:02:00,29.1,20.8,30.36,NNW,342,11.0,14.0,71,0.00,,,0.00,meteohub,2013-02-22 12:02:00,
2013-02-22 07:07:00,28.9,20.7,30.37,NNW,333,9.0,14.0,71,0.00,,,0.00,meteohub,2013-02-22 12:07:00,
2013-02-22 07:12:00,28.9,20.7,30.36,NNW,330,5.0,14.0,71,0.00,,,0.00,meteohub,2013-02-22 12:12:00,
2013-02-22 07:17:00,28.9,20.7,30.37,NW,320,1.0,14.0,71,0.00,,,0.00,meteohub,2013-02-22 12:17:00,
2013-02-22 07:22:00,28.9,20.7,30.37,NNW,346,7.0,14.0,71,0.00,,,0.00,meteohub,2013-02-22 12:22:00,
2013-02-22 07:27:00,28.9,20.5,30.37,NNW,342,4.0,14.0,70,0.00,,,0.00,meteohub,2013-02-22 12:27:00,
2013-02-22 07:32:00,28.9,20.7,30.37,North,352,7.0,11.0,71,0.00,,,0.00,meteohub,2013-02-22 12:32:00,
2013-02-22 07:37:00,28.9,20.7,30.37,NNW,347,8.0,11.0,71,0.00,,,0.00,meteohub,2013-02-22 12:37:00,
2013-02-22 07:42:00,28.9,20.5,30.37,NNW,342,4.0,11.0,70,0.00,,,0.00,meteohub,2013-02-22 12:42:00,
2013-02-22 07:47:00,28.9,20.5,30.37,North,354,1.0,13.0,70,0.00,,,0.00,meteohub,2013-02-22 12:47:00,
2013-02-22 07:52:00,29.1,20.5,30.37,NNW,338,9.0,13.0,70,0.00,,,0.00,meteohub,2013-02-22 12:52:00,
2013-02-22 07:57:00,29.1,20.5,30.37,NNW,334,3.0,13.0,70,0.00,,,0.00,meteohub,2013-02-22 12:57:00,
2013-02-22 08:02:00,29.5,20.8,30.37,NNW,330,4.0,11.0,70,0.00,,,0.00,meteohub,2013-02-22 13:02:00,
2013-02-22 08:07:00,29.7,20.7,30.38,NNW,335,6.0,10.0,69,0.00,,,0.00,meteohub,2013-02-22 13:07:00,
2013-02-22 08:12:00,29.8,20.8,30.37,NNW,328,2.0,10.0,69,0.00,,,0.00,meteohub,2013-02-22 13:12:00,
2013-02-22 08:17:00,30.0,21.0,30.37,NW,314,4.0,12.0,69,0.00,,,0.00,meteohub,2013-02-22 13:17:00,
2013-02-22 08:22:00,30.2,21.2,30.38,North,7,5.0,12.0,69,0.00,,,0.00,meteohub,2013-02-22 13:22:00,
2013-02-22 08:27:00,30.4,21.4,30.38,NW,314,3.0,12.0,69,0.00,,,0.00,meteohub,2013-02-22 13:27:00,
2013-02-22 08:32:00,30.6,21.6,30.38,NNW,338,2.0,11.0,69,0.00,,,0.00,meteohub,2013-02-22 13:32:00,
2013-02-22 08:37:00,30.7,21.4,30.38,NW,324,10.0,11.0,68,0.00,,,0.00,meteohub,2013-02-22 13:37:00,
2013-02-22 08:42:00,30.9,21.6,30.38,NW,310,3.0,11.0,68,0.00,,,0.00,meteohub,2013-02-22 13:42:00,
2013-02-22 08:47:00,31.3,21.6,30.38,NNW,342,5.0,15.0,67,0.00,,,0.00,meteohub,2013-02-22 13:47:00,
2013-02-22 08:52:00,31.5,21.7,30.38,NNE,31,2.0,15.0,67,0.00,,,0.00,meteohub,2013-02-22 13:52:00,
2013-02-22 08:57:00,31.8,22.1,30.38,NE,37,4.0,15.0,67,0.00,,,0.00,meteohub,2013-02-22 13:57:00,
2013-02-22 09:02:00,31.8,22.1,30.38,North,359,7.0,10.0,67,0.00,,,0.00,meteohub,2013-02-22 14:02:00,
2013-02-22 09:08:00,32.2,22.5,30.38,North,354,6.0,13.0,67,0.00,,,0.00,meteohub,2013-02-22 14:08:00,
2013-02-22 09:12:00,32.2,22.1,30.38,NNE,16,4.0,15.0,66,0.00,,,0.00,meteohub,2013-02-22 14:12:00,
2013-02-22 09:17:00,32.4,22.6,30.38,North,5,6.0,15.0,67,0.00,,,0.00,meteohub,2013-02-22 14:17:00,
2013-02-22 09:23:00,32.5,22.8,30.38,North,0,2.0,15.0,67,0.00,,,0.00,meteohub,2013-02-22 14:23:00,
2013-02-22 09:28:00,32.5,22.8,30.38,NNE,20,8.0,13.0,67,0.00,,,0.00,meteohub,2013-02-22 14:28:00,
2013-02-22 09:33:00,32.9,23.2,30.38,NNW,340,5.0,13.0,67,0.00,,,0.00,meteohub,2013-02-22 14:33:00,
2013-02-22 09:38:00,32.9,23.2,30.38,North,352,7.0,13.0,67,0.00,,,0.00,meteohub,2013-02-22 14:38:00,
2013-02-22 09:43:00,32.9,23.2,30.38,North,6,7.0,12.0,67,0.00,,,0.00,meteohub,2013-02-22 14:43:00,
2013-02-22 09:48:00,32.9,23.2,30.38,NNE,33,6.0,12.0,67,0.00,,,0.00,meteohub,2013-02-22 14:48:00,
2013-02-22 09:53:00,33.1,23.4,30.38,NNW,338,5.0,12.0,67,0.00,,,0.00,meteohub,2013-02-22 14:53:00,
2013-02-22 09:58:00,33.1,23.4,30.38,NNW,346,5.0,12.0,67,0.00,,,0.00,meteohub,2013-02-22 14:58:00,
2013-02-22 10:03:00,33.1,23.4,30.38,NE,39,10.0,12.0,67,0.00,,,0.00,meteohub,2013-02-22 15:03:00,
2013-02-22 10:08:00,33.3,23.5,30.38,NNW,330,2.0,12.0,67,0.00,,,0.00,meteohub,2013-02-22 15:08:00,
2013-02-22 10:13:00,33.4,23.7,30.38,North,4,2.0,14.0,67,0.00,,,0.00,meteohub,2013-02-22 15:13:00,
2013-02-22 10:18:00,33.6,23.9,30.38,NNE,22,9.0,15.0,67,0.00,,,0.00,meteohub,2013-02-22 15:18:00,
2013-02-22 10:23:00,33.8,23.7,30.38,NW,324,5.0,15.0,66,0.00,,,0.00,meteohub,2013-02-22 15:23:00,
2013-02-22 10:28:00,34.0,24.3,30.38,NE,50,6.0,16.0,67,0.00,,,0.00,meteohub,2013-02-22 15:28:00,
2013-02-22 10:33:00,34.2,24.4,30.38,NNE,29,2.0,16.0,67,0.00,,,0.00,meteohub,2013-02-22 15:33:00,
2013-02-22 10:38:00,34.3,24.4,30.38,NNE,23,12.0,16.0,67,0.00,,,0.00,meteohub,2013-02-22 15:38:00,
2013-02-22 10:43:00,34.3,24.4,30.38,NE,39,9.0,15.0,67,0.00,,,0.00,meteohub,2013-02-22 15:43:00,
2013-02-22 10:48:00,34.5,24.6,30.38,NNE,33,8.0,15.0,67,0.00,,,0.00,meteohub,2013-02-22 15:48:00,
2013-02-22 10:53:00,34.5,24.6,30.37,NE,39,12.0,15.0,67,0.00,,,0.00,meteohub,2013-02-22 15:53:00,
2013-02-22 10:58:00,34.5,24.6,30.37,NE,53,10.0,14.0,67,0.00,,,0.00,meteohub,2013-02-22 15:58:00,
2013-02-22 11:03:00,34.3,24.4,30.36,NE,34,8.0,15.0,67,0.00,,,0.00,meteohub,2013-02-22 16:03:00,
2013-02-22 11:08:00,34.5,24.6,30.37,NNW,345,6.0,16.0,67,0.00,,,0.00,meteohub,2013-02-22 16:08:00,
2013-02-22 11:13:00,34.7,24.8,30.36,NNE,16,7.0,16.0,67,0.00,,,0.00,meteohub,2013-02-22 16:13:00,
2013-02-22 11:19:00,34.9,25.0,30.36,NNE,27,5.0,16.0,67,0.00,,,0.00,meteohub,2013-02-22 16:19:00,
2013-02-22 11:24:00,35.1,25.2,30.37,ENE,75,3.0,13.0,67,0.00,,,0.00,meteohub,2013-02-22 16:24:00,
2013-02-22 11:29:00,34.9,25.0,30.37,North,352,3.0,14.0,67,0.00,,,0.00,meteohub,2013-02-22 16:29:00,
2013-02-22 11:34:00,35.1,25.5,30.37,ENE,63,4.0,15.0,68,0.00,,,0.00,meteohub,2013-02-22 16:34:00,
2013-02-22 11:39:00,35.2,25.3,30.37,NNW,333,5.0,15.0,67,0.00,,,0.00,meteohub,2013-02-22 16:39:00,
2013-02-22 11:44:00,35.2,25.0,30.37,NNE,33,5.0,15.0,66,0.00,,,0.00,meteohub,2013-02-22 16:44:00,
2013-02-22 11:49:00,35.4,25.2,30.36,NW,324,9.0,13.0,66,0.00,,,0.00,meteohub,2013-02-22 16:49:00,
2013-02-22 11:54:00,35.4,25.2,30.36,NE,54,7.0,15.0,66,0.00,,,0.00,meteohub,2013-02-22 16:54:00,
2013-02-22 11:59:00,35.8,25.2,30.36,NNE,13,5.0,15.0,65,0.00,,,0.00,meteohub,2013-02-22 16:59:00,
2013-02-22 12:04:00,35.8,25.2,30.36,WNW,295,3.0,15.0,65,0.00,,,0.00,meteohub,2013-02-22 17:04:00,
2013-02-22 12:09:00,36.0,25.3,30.36,NE,47,2.0,15.0,65,0.00,,,0.00,meteohub,2013-02-22 17:09:00,
2013-02-22 12:14:00,36.1,25.5,30.35,ENE,66,4.0,15.0,65,0.00,,,0.00,meteohub,2013-02-22 17:14:00,
2013-02-22 12:19:00,36.0,25.3,30.36,NE,55,8.0,13.0,65,0.00,,,0.00,meteohub,2013-02-22 17:19:00,
2013-02-22 12:24:00,35.8,24.8,30.36,NE,40,4.0,15.0,64,0.00,,,0.00,meteohub,2013-02-22 17:24:00,
2013-02-22 12:29:00,36.0,25.3,30.36,ENE,59,5.0,15.0,65,0.00,,,0.00,meteohub,2013-02-22 17:29:00,
2013-02-22 12:34:00,36.0,25.3,30.36,North,4,10.0,15.0,65,0.00,,,0.00,meteohub,2013-02-22 17:34:00,
2013-02-22 12:39:00,36.1,25.2,30.36,North,354,5.0,15.0,64,0.00,,,0.00,meteohub,2013-02-22 17:39:00,
2013-02-22 12:44:00,36.1,25.5,30.36,NNW,328,8.0,15.0,65,0.00,,,0.00,meteohub,2013-02-22 17:44:00,
2013-02-22 12:49:00,36.7,26.1,30.35,NNW,342,8.0,15.0,65,0.00,,,0.00,meteohub,2013-02-22 17:49:00,
2013-02-22 12:54:00,37.0,26.1,30.36,NE,39,12.0,15.0,64,0.00,,,0.00,meteohub,2013-02-22 17:54:00,
2013-02-22 12:59:00,37.0,25.7,30.35,NNE,15,12.0,14.0,63,0.00,,,0.00,meteohub,2013-02-22 17:59:00,
2013-02-22 13:04:00,37.0,25.7,30.36,NNW,346,8.0,14.0,63,0.00,,,0.00,meteohub,2013-02-22 18:04:00,
2013-02-22 13:09:00,37.4,25.5,30.36,North,5,10.0,15.0,62,0.00,,,0.00,meteohub,2013-02-22 18:09:00,
2013-02-22 13:14:00,37.4,25.5,30.36,North,0,5.0,15.0,62,0.00,,,0.00,meteohub,2013-02-22 18:14:00,
2013-02-22 13:19:00,37.2,25.0,30.36,NNE,20,6.0,14.0,61,0.00,,,0.00,meteohub,2013-02-22 18:19:00,
2013-02-22 13:24:00,36.9,25.0,30.37,ENE,77,6.0,15.0,62,0.00,,,0.00,meteohub,2013-02-22 18:24:00,
2013-02-22 13:30:00,37.6,25.7,30.36,North,0,9.0,15.0,62,0.00,,,0.00,meteohub,2013-02-22 18:30:00,
2013-02-22 13:35:00,37.8,25.5,30.36,NE,41,9.0,15.0,61,0.00,,,0.00,meteohub,2013-02-22 18:35:00,
2013-02-22 13:40:00,37.6,25.3,30.35,NNE,30,10.0,12.0,61,0.00,,,0.00,meteohub,2013-02-22 18:40:00,
2013-02-22 13:45:00,37.8,25.5,30.35,NNE,18,9.0,14.0,61,0.00,,,0.00,meteohub,2013-02-22 18:45:00,
2013-02-22 13:50:00,38.1,25.5,30.35,NE,50,5.0,14.0,60,0.00,,,0.00,meteohub,2013-02-22 18:50:00,
2013-02-22 13:55:00,38.3,25.7,30.35,NNE,16,7.0,14.0,60,0.00,,,0.00,meteohub,2013-02-22 18:55:00,
2013-02-22 14:00:00,38.3,25.7,30.35,NNE,31,7.0,13.0,60,0.00,,,0.00,meteohub,2013-02-22 19:00:00,
2013-02-22 14:05:00,38.3,25.2,30.35,NNE,29,8.0,13.0,59,0.00,,,0.00,meteohub,2013-02-22 19:05:00,
2013-02-22 14:10:00,38.1,25.0,30.35,East,96,2.0,15.0,59,0.00,,,0.00,meteohub,2013-02-22 19:10:00,
2013-02-22 14:15:00,37.9,25.3,30.34,NE,51,4.0,15.0,60,0.00,,,0.00,meteohub,2013-02-22 19:15:00,
2013-02-22 14:20:00,38.1,25.5,30.34,North,352,7.0,15.0,60,0.00,,,0.00,meteohub,2013-02-22 19:20:00,
2013-02-22 14:25:00,37.9,25.3,30.34,East,89,6.0,11.0,60,0.00,,,0.00,meteohub,2013-02-22 19:25:00,
2013-02-22 14:30:00,38.1,25.5,30.34,North,9,2.0,17.0,60,0.00,,,0.00,meteohub,2013-02-22 19:30:00,
2013-02-22 14:35:00,37.9,24.4,30.34,NE,50,3.0,17.0,58,0.00,,,0.00,meteohub,2013-02-22 19:35:00,
2013-02-22 14:40:00,38.1,24.6,30.35,NE,54,10.0,17.0,58,0.00,,,0.00,meteohub,2013-02-22 19:40:00,
2013-02-22 14:45:00,37.8,24.8,30.35,East,89,6.0,15.0,59,0.00,,,0.00,meteohub,2013-02-22 19:45:00,
2013-02-22 14:50:00,37.8,25.2,30.35,NE,56,11.0,15.0,60,0.00,,,0.00,meteohub,2013-02-22 19:50:00,
2013-02-22 14:55:00,37.6,25.0,30.34,East,79,11.0,11.0,60,0.00,,,0.00,meteohub,2013-02-22 19:55:00,
2013-02-22 15:00:00,37.2,25.7,30.34,East,84,8.0,12.0,63,0.00,,,0.00,meteohub,2013-02-22 20:00:00,
2013-02-22 15:05:00,37.0,25.7,30.35,ESE,103,4.0,12.0,63,0.00,,,0.00,meteohub,2013-02-22 20:05:00,
2013-02-22 15:10:00,37.0,26.1,30.35,NE,51,6.0,12.0,64,0.00,,,0.00,meteohub,2013-02-22 20:10:00,
2013-02-22 15:15:00,36.9,25.9,30.35,NNE,27,3.0,11.0,64,0.00,,,0.00,meteohub,2013-02-22 20:15:00,
2013-02-22 15:20:00,36.9,25.9,30.35,East,94,6.0,10.0,64,0.00,,,0.00,meteohub,2013-02-22 20:20:00,
2013-02-22 15:25:00,36.9,26.2,30.35,NE,54,5.0,10.0,65,0.00,,,0.00,meteohub,2013-02-22 20:25:00,
2013-02-22 15:30:00,36.9,25.9,30.35,ENE,67,10.0,10.0,64,0.00,,,0.00,meteohub,2013-02-22 20:30:00,
2013-02-22 15:36:00,37.0,25.7,30.35,ENE,60,4.0,11.0,63,0.00,,,0.00,meteohub,2013-02-22 20:36:00,
2013-02-22 15:41:00,37.2,26.2,30.35,NE,51,4.0,11.0,64,0.00,,,0.00,meteohub,2013-02-22 20:41:00,
2013-02-22 15:46:00,37.2,25.7,30.35,NNE,23,7.0,11.0,63,0.00,,,0.00,meteohub,2013-02-22 20:46:00,
2013-02-22 15:51:00,37.2,25.7,30.35,ESE,109,4.0,11.0,63,0.00,,,0.00,meteohub,2013-02-22 20:51:00,
2013-02-22 15:56:00,37.2,25.7,30.35,NE,47,5.0,11.0,63,0.00,,,0.00,meteohub,2013-02-22 20:56:00,
2013-02-22 16:01:00,37.0,25.7,30.35,ENE,73,7.0,10.0,63,0.00,,,0.00,meteohub,2013-02-22 21:01:00,
2013-02-22 16:06:00,37.0,25.7,30.34,ENE,69,8.0,13.0,63,0.00,,,0.00,meteohub,2013-02-22 21:06:00,
2013-02-22 16:11:00,37.0,26.1,30.34,East,95,7.0,13.0,64,0.00,,,0.00,meteohub,2013-02-22 21:11:00,
2013-02-22 16:16:00,36.9,25.5,30.34,ENE,59,3.0,14.0,63,0.00,,,0.00,meteohub,2013-02-22 21:16:00,
2013-02-22 16:21:00,36.9,26.2,30.34,ENE,63,5.0,14.0,65,0.00,,,0.00,meteohub,2013-02-22 21:21:00,
2013-02-22 16:26:00,36.5,25.9,30.34,ENE,65,3.0,14.0,65,0.00,,,0.00,meteohub,2013-02-22 21:26:00,
2013-02-22 16:31:00,36.3,25.7,30.34,East,91,6.0,12.0,65,0.00,,,0.00,meteohub,2013-02-22 21:31:00,
2013-02-22 16:36:00,36.1,25.9,30.34,East,89,6.0,13.0,66,0.00,,,0.00,meteohub,2013-02-22 21:36:00,
2013-02-22 16:41:00,36.0,25.7,30.34,North,352,4.0,13.0,66,0.00,,,0.00,meteohub,2013-02-22 21:41:00,
2013-02-22 16:46:00,36.0,25.7,30.34,NE,53,3.0,10.0,66,0.00,,,0.00,meteohub,2013-02-22 21:46:00,
2013-02-22 16:51:00,35.8,25.5,30.35,NNE,19,1.0,10.0,66,0.00,,,0.00,meteohub,2013-02-22 21:51:00,
2013-02-22 16:56:00,35.8,25.5,30.35,NE,54,6.0,8.0,66,0.00,,,0.00,meteohub,2013-02-22 21:56:00,
2013-02-22 17:01:00,35.6,25.3,30.35,ENE,63,3.0,8.0,66,0.00,,,0.00,meteohub,2013-02-22 22:01:00,
2013-02-22 17:06:00,35.6,25.3,30.36,NE,39,0.0,8.0,66,0.00,,,0.00,meteohub,2013-02-22 22:06:00,
2013-02-22 17:11:00,35.4,25.2,30.36,ENE,67,1.0,6.0,66,0.00,,,0.00,meteohub,2013-02-22 22:11:00,
2013-02-22 17:16:00,35.4,25.2,30.36,NNE,22,2.0,4.0,66,0.00,,,0.00,meteohub,2013-02-22 22:16:00,
2013-02-22 17:21:00,35.2,25.0,30.36,NE,54,3.0,4.0,66,0.00,,,0.00,meteohub,2013-02-22 22:21:00,
2013-02-22 17:26:00,35.2,25.3,30.35,ENE,68,0.0,5.0,67,0.00,,,0.00,meteohub,2013-02-22 22:26:00,
2013-02-22 17:31:00,35.1,25.2,30.35,ENE,73,1.0,5.0,67,0.00,,,0.00,meteohub,2013-02-22 22:31:00,
2013-02-22 17:36:00,35.1,25.2,30.35,ENE,63,2.0,5.0,67,0.00,,,0.00,meteohub,2013-02-22 22:36:00,
2013-02-22 17:41:00,34.9,25.3,30.35,ENE,74,3.0,5.0,68,0.00,,,0.00,meteohub,2013-02-22 22:41:00,
2013-02-22 17:46:00,34.7,25.2,30.35,NE,53,3.0,6.0,68,0.00,,,0.00,meteohub,2013-02-22 22:46:00,
2013-02-22 17:51:00,34.7,25.5,30.35,ENE,59,4.0,6.0,69,0.00,,,0.00,meteohub,2013-02-22 22:51:00,
2013-02-22 17:56:00,34.7,25.5,30.35,East,89,1.0,7.0,69,0.00,,,0.00,meteohub,2013-02-22 22:56:00,
2013-02-22 18:01:00,34.7,25.5,30.35,NE,55,2.0,7.0,69,0.00,,,0.00,meteohub,2013-02-22 23:01:00,
2013-02-22 18:06:00,34.5,25.3,30.36,East,82,1.0,6.0,69,0.00,,,0.00,meteohub,2013-02-22 23:06:00,
2013-02-22 18:11:00,34.5,25.7,30.36,ENE,77,0.0,6.0,70,0.00,,,0.00,meteohub,2013-02-22 23:11:00,
2013-02-22 18:16:00,34.5,25.3,30.36,East,79,0.0,3.0,69,0.00,,,0.00,meteohub,2013-02-22 23:16:00,
2013-02-22 18:22:00,34.5,25.7,30.36,ENE,73,0.0,3.0,70,0.00,,,0.00,meteohub,2013-02-22 23:22:00,
2013-02-22 18:27:00,34.3,25.5,30.36,ESE,102,0.0,2.0,70,0.00,,,0.00,meteohub,2013-02-22 23:27:00,
2013-02-22 18:32:00,34.3,25.5,30.37,East,82,1.0,3.0,70,0.00,,,0.00,meteohub,2013-02-22 23:32:00,
2013-02-22 18:37:00,34.3,25.9,30.37,NNE,15,0.0,3.0,71,0.00,,,0.00,meteohub,2013-02-22 23:37:00,
2013-02-22 18:42:00,34.3,25.9,30.37,ENE,63,2.0,3.0,71,0.00,,,0.00,meteohub,2013-02-22 23:42:00,
2013-02-22 18:47:00,34.3,25.9,30.37,NE,53,0.0,4.0,71,0.00,,,0.00,meteohub,2013-02-22 23:47:00,
2013-02-22 18:52:00,34.2,25.7,30.37,ENE,63,1.0,4.0,71,0.00,,,0.00,meteohub,2013-02-22 23:52:00,
2013-02-22 18:57:00,34.2,25.7,30.37,ENE,75,1.0,4.0,71,0.00,,,0.00,meteohub,2013-02-22 23:57:00,
2013-02-22 19:02:00,34.2,25.3,30.37,ENE,78,0.0,4.0,70,0.00,,,0.00,meteohub,2013-02-23 00:02:00,
2013-02-22 19:07:00,34.2,25.7,30.36,East,91,2.0,3.0,71,0.00,,,0.00,meteohub,2013-02-23 00:07:00,
2013-02-22 19:12:00,34.2,25.7,30.37,ESE,123,0.0,3.0,71,0.00,,,0.00,meteohub,2013-02-23 00:12:00,
2013-02-22 19:17:00,34.2,25.7,30.36,ENE,63,5.0,6.0,71,0.00,,,0.00,meteohub,2013-02-23 00:17:00,
2013-02-22 19:22:00,34.2,25.7,30.37,East,85,0.0,6.0,71,0.00,,,0.00,meteohub,2013-02-23 00:22:00,
2013-02-22 19:27:00,34.3,25.9,30.36,ENE,77,2.0,6.0,71,0.00,,,0.00,meteohub,2013-02-23 00:27:00,
2013-02-22 19:32:00,34.3,25.9,30.37,East,86,3.0,5.0,71,0.00,,,0.00,meteohub,2013-02-23 00:32:00,
2013-02-22 19:37:00,34.3,25.9,30.37,ESE,105,1.0,5.0,71,0.00,,,0.00,meteohub,2013-02-23 00:37:00,
2013-02-22 19:42:00,34.5,26.1,30.37,ESE,114,2.0,5.0,71,0.00,,,0.00,meteohub,2013-02-23 00:42:00,
2013-02-22 19:47:00,34.5,26.1,30.38,ESE,110,0.0,5.0,71,0.00,,,0.00,meteohub,2013-02-23 00:47:00,
2013-02-22 19:52:00,34.5,26.1,30.37,East,97,2.0,3.0,71,0.00,,,0.00,meteohub,2013-02-23 00:52:00,
2013-02-22 19:57:00,34.5,26.1,30.37,East,98,1.0,5.0,71,0.00,,,0.00,meteohub,2013-02-23 00:57:00,
2013-02-22 20:02:00,34.3,25.9,30.37,East,91,0.0,5.0,71,0.00,,,0.00,meteohub,2013-02-23 01:02:00,
2013-02-22 20:07:00,34.3,25.9,30.37,ENE,75,2.0,4.0,71,0.00,,,0.00,meteohub,2013-02-23 01:07:00,
2013-02-22 20:12:00,34.3,25.9,30.37,East,79,3.0,4.0,71,0.00,,,0.00,meteohub,2013-02-23 01:12:00,
2013-02-22 20:17:00,34.3,26.2,30.36,ESE,112,1.0,4.0,72,0.00,,,0.00,meteohub,2013-02-23 01:17:00,
2013-02-22 20:22:00,34.2,26.1,30.36,East,81,1.0,4.0,72,0.00,,,0.00,meteohub,2013-02-23 01:22:00,
2013-02-22 20:27:00,34.2,26.1,30.35,East,101,2.0,5.0,72,0.00,,,0.00,meteohub,2013-02-23 01:27:00,
2013-02-22 20:32:00,34.2,26.1,30.36,East,95,0.0,5.0,72,0.00,,,0.00,meteohub,2013-02-23 01:32:00,
2013-02-22 20:37:00,34.2,26.1,30.37,ENE,57,3.0,5.0,72,0.00,,,0.00,meteohub,2013-02-23 01:37:00,
2013-02-22 20:42:00,34.3,26.2,30.36,NE,49,2.0,4.0,72,0.00,,,0.00,meteohub,2013-02-23 01:42:00,
2013-02-22 20:47:00,34.3,26.6,30.36,NE,43,2.0,4.0,73,0.00,,,0.00,meteohub,2013-02-23 01:47:00,
2013-02-22 20:52:00,34.2,26.4,30.36,ENE,60,4.0,4.0,73,0.00,,,0.00,meteohub,2013-02-23 01:52:00,
2013-02-22 20:57:00,34.3,26.6,30.36,East,101,3.0,4.0,73,0.00,,,0.00,meteohub,2013-02-23 01:57:00,
2013-02-22 21:02:00,34.3,26.6,30.36,East,92,1.0,6.0,73,0.00,,,0.00,meteohub,2013-02-23 02:02:00,
2013-02-22 21:07:00,34.3,26.6,30.35,East,86,1.0,6.0,73,0.00,,,0.00,meteohub,2013-02-23 02:07:00,
2013-02-22 21:12:00,34.3,27.0,30.35,East,85,0.0,6.0,74,0.00,,,0.00,meteohub,2013-02-23 02:12:00,
2013-02-22 21:17:00,34.3,27.0,30.36,SE,129,0.0,4.0,74,0.00,,,0.00,meteohub,2013-02-23 02:17:00,
2013-02-22 21:22:00,34.3,27.0,30.36,SE,128,0.0,3.0,74,0.00,,,0.00,meteohub,2013-02-23 02:22:00,
2013-02-22 21:27:00,34.3,27.0,30.36,SE,128,0.0,3.0,74,0.00,,,0.00,meteohub,2013-02-23 02:27:00,
2013-02-22 21:32:00,34.3,27.0,30.36,NE,40,0.0,1.0,74,0.00,,,0.00,meteohub,2013-02-23 02:32:00,
2013-02-22 21:37:00,34.3,27.0,30.36,NE,39,0.0,1.0,74,0.00,,,0.00,meteohub,2013-02-23 02:37:00,
2013-02-22 21:42:00,34.3,27.0,30.36,NNE,18,0.0,1.0,74,0.00,,,0.00,meteohub,2013-02-23 02:42:00,
2013-02-22 21:47:00,34.2,26.8,30.36,NNW,338,0.0,2.0,74,0.00,,,0.00,meteohub,2013-02-23 02:47:00,
2013-02-22 21:52:00,34.2,26.8,30.36,NNW,347,0.0,2.0,74,0.00,,,0.00,meteohub,2013-02-23 02:52:00,
2013-02-22 21:57:00,34.0,27.0,30.36,NNW,347,0.0,2.0,75,0.00,,,0.00,meteohub,2013-02-23 02:57:00,
2013-02-22 22:02:00,34.0,27.0,30.36,North,11,0.0,1.0,75,0.00,,,0.00,meteohub,2013-02-23 03:02:00,
2013-02-22 22:07:00,34.0,27.1,30.36,North,11,0.0,1.0,76,0.00,,,0.00,meteohub,2013-02-23 03:07:00,
2013-02-22 22:12:00,34.0,27.0,30.37,NNW,330,0.0,1.0,75,0.00,,,0.00,meteohub,2013-02-23 03:12:00,
2013-02-22 22:17:00,34.0,27.0,30.36,NNE,20,0.0,1.0,75,0.00,,,0.00,meteohub,2013-02-23 03:17:00,
2013-02-22 22:22:00,34.0,27.1,30.36,NNE,27,0.0,1.0,76,0.00,,,0.00,meteohub,2013-02-23 03:22:00,
2013-02-22 22:27:00,33.6,26.8,30.36,NNE,20,0.0,1.0,76,0.00,,,0.00,meteohub,2013-02-23 03:27:00,
2013-02-22 22:32:00,33.6,26.8,30.36,NNE,20,0.0,1.0,76,0.00,,,0.00,meteohub,2013-02-23 03:32:00,
2013-02-22 22:37:00,33.4,27.0,30.36,NNE,19,0.0,1.0,77,0.00,,,0.00,meteohub,2013-02-23 03:37:00,
2013-02-22 22:42:00,33.4,27.0,30.35,East,79,0.0,1.0,77,0.00,,,0.00,meteohub,2013-02-23 03:42:00,
2013-02-22 22:47:00,33.4,27.0,30.36,ENE,77,0.0,1.0,77,0.00,,,0.00,meteohub,2013-02-23 03:47:00,
2013-02-22 22:52:00,33.4,27.0,30.36,ENE,77,0.0,1.0,77,0.00,,,0.00,meteohub,2013-02-23 03:52:00,
2013-02-22 22:57:00,33.3,26.8,30.36,ENE,67,0.0,1.0,77,0.00,,,0.00,meteohub,2013-02-23 03:57:00,
2013-02-22 23:02:00,33.3,26.8,30.35,ENE,67,0.0,1.0,77,0.00,,,0.00,meteohub,2013-02-23 04:02:00,
2013-02-22 23:07:00,33.3,27.1,30.35,ENE,67,0.0,1.0,78,0.00,,,0.00,meteohub,2013-02-23 04:07:00,
2013-02-22 23:12:00,33.3,27.1,30.35,NNW,333,1.0,1.0,78,0.00,,,0.00,meteohub,2013-02-23 04:12:00,
2013-02-22 23:17:00,33.1,27.0,30.35,NNW,338,1.0,1.0,78,0.00,,,0.00,meteohub,2013-02-23 04:17:00,
2013-02-22 23:22:00,32.9,26.8,30.35,NNW,342,2.0,2.0,78,0.00,,,0.00,meteohub,2013-02-23 04:22:00,
2013-02-22 23:27:00,32.7,26.6,30.35,NW,326,1.0,3.0,78,0.00,,,0.00,meteohub,2013-02-23 04:27:00,
2013-02-22 23:32:00,32.5,26.8,30.35,NNW,328,0.0,3.0,79,0.00,,,0.00,meteohub,2013-02-23 04:32:00,
2013-02-22 23:37:00,32.5,26.8,30.35,NNW,332,0.0,3.0,79,0.00,,,0.00,meteohub,2013-02-23 04:37:00,
2013-02-22 23:42:00,32.2,26.4,30.34,East,101,0.0,3.0,79,0.00,,,0.00,meteohub,2013-02-23 04:42:00,
2013-02-22 23:47:00,32.0,26.6,30.34,ESE,102,0.0,2.0,80,0.00,,,0.00,meteohub,2013-02-23 04:47:00,
2013-02-22 23:52:00,31.8,26.4,30.34,East,101,0.0,1.0,80,0.00,,,0.00,meteohub,2013-02-23 04:52:00,
2013-02-22 23:57:00,31.6,26.4,30.34,ESE,102,0.0,1.0,81,0.00,,,0.00,meteohub,2013-02-23 04:57:00,